This demonstration page uses our WeatherBlox Daily Observations layout. Learn more.

Left ArrowRight Arrow

38.83388, -104.82136

Hourly Observations for May 6, 2022

Temp ( °F °C ) Dew Point ( °F °C ) Humidity (%) Winds ( mph kmh ) Pressure ( in mb ) Visibility ( mi km ) Precip ( " mm )
12:58 am 00:58 Clear 49 9.2 34 0.9 56 56 Calm 29.63 1004 10 16 0.00 0.00
1:58 am 01:58 Clear 48 9 32 -0.1 53 53 S 6 9 29.62 1003 10 16 0.00 0.00
2:58 am 02:58 Clear 50 9.8 29 -1.9 44 44 Calm 29.59 1002 10 16 0.00 0.00
3:58 am 03:58 undefined 51 10.3 25 -3.8 37 37 S 3 6 29.60 1002 10 16 0.00 0.00
4:58 am 04:58 Cloudy 51 10.7 23 -4.9 33 33 Calm 29.59 1002 10 16 0.00 0.00
5:58 am 05:58 Cloudy 52 11.2 22 -5.3 31 31 NNW 10 17 29.61 1003 10 16 0.00 0.00
6:58 am 06:58 Cloudy 53 11.8 23 -4.8 31 31 W 7 11 29.66 1005 10 16 0.00 0.00
7:58 am 07:58 Sunny 62 16.6 22 -5.8 21 21 ESE 5 7 29.66 1004 10 16 0.00 0.00
8:58 am 08:58 Sunny 59 15 22 -5.4 24 24 NE 3 6 29.74 1007 10 16 0.00 0.00
9:58 am 09:58 Mostly Cloudy 63 17.2 27 -3 25 25 ENE 5 7 29.76 1008 10 16 0.00 0.00
10:58 am 10:58 Mostly Sunny 68 20 22 -5.8 17 17 Calm 29.78 1009 10 16 0.00 0.00
11:58 am 11:58 Mostly Sunny 69 20.6 28 -2.5 21 21 SE 6 9 29.78 1009 10 16 0.00 0.00
12:58 pm 12:58 Sunny 71 21.6 27 -3 19 19 SE 13 20 29.78 1009 10 16 0.00 0.00
1:58 pm 13:58 Sunny 73 22.6 21 -6.3 14 14 SE 5 7 29.77 1008 10 16 0.00 0.00
2:58 pm 14:58 Sunny 76 24.2 21 -6 13 13 SE 10 17 29.78 1008 10 16 0.00 0.00
3:58 pm 15:58 Mostly Cloudy 73 22.7 19 -7.2 13 13 SE 8 13 29.72 1006 10 16 0.00 0.00
4:58 pm 16:58 Cloudy 73 22.8 21 -6.1 14 14 SE 6 9 29.71 1006 9 14 0.00 0.00
5:58 pm 17:58 Mostly Cloudy 72 22 22 -5.8 15 15 S 5 7 29.70 1006 10 16 0.00 0.00
6:58 pm 18:58 Partly Cloudy 71 21.5 21 -6.2 15 15 SW 6 9 29.67 1005 10 16 0.00 0.00
7:58 pm 19:58 Clear 70 21.1 22 -5.7 16 16 S 6 9 29.65 1004 10 16 0.00 0.00
8:58 pm 20:58 Clear 68 19.8 25 -3.8 20 20 undefined N/A 29.66 1004 10 16 0.00 0.00
9:58 pm 21:58 Clear 68 20.1 24 -4.3 19 19 SW 7 11 29.65 1004 10 16 0.00 0.00
10:58 pm 22:58 Clear 64 17.5 22 -5.7 20 20 WNW 9 15 29.62 1003 10 16 0.00 0.00
11:58 pm 23:58 Clear 62 16.6 24 -4.6 23 23 WNW 6 9 29.60 1003 10 16 0.00 0.00

Powered by AerisWeather